Istanbul, Turkey

7:31 AM +03 on November 24, 2017 (GMT +0300)
Ataturk

Weather History for LTBA - April, 2014

Change the Weather History Date:

Tuesday, April 8, 2014

  Actual Average Record
Temperature  
Mean Temperature 55 °F -  
Max Temperature 62 °F 62 °F 79 °F (2016)
Min Temperature 48 °F 47 °F 35 °F (2002)
Degree Days  
Heating Degree Days 10    
Growing Degree Days 5 (Base 50)    
Moisture  
Dew Point 43 °F    
Average Humidity 67    
Maximum Humidity 87    
Minimum Humidity 35    
Precipitation  
Precipitation 0.00 in - - ()
Sea Level Pressure  
Sea Level Pressure 30.06 in    
Wind  
Wind Speed 7 mph ()    
Max Wind Speed 13 mph    
Max Gust Speed 16 mph    
Visibility 6.1 miles    
Events      
Averages and records for this station are not official NWS values.
T = Trace of Precipitation, MM = Missing Value Source: Averaged Metar Reports

Daily Weather History Graph

Daily Weather History Graph

Search for Another Location

Airport or City:

Trip Planner

Search our weather history database for the weather conditions in past years. The results will help you decide how hot, cold, wet, or windy it might be!

Date:

Astronomy

Apr. 08, 2014 Rise Set
Actual Time 6:37 AM EEST 7:36 PM EEST
Civil Twilight 6:09 AM EEST 8:04 PM EEST
Nautical Twilight 5:35 AM EEST 8:38 PM EEST
Astronomical Twilight 5:01 AM EEST 9:13 PM EEST
Moon 1:09 PM EEST (4/8) 2:40 AM EEST (4/8)
Length of Visible Light 13h 55m
Length of Day
12h 59m
First Quarter, 60% of the Moon is Illuminated
Apr 8
First Quarter
Apr 15
Full
Apr 22
Last Quarter
Apr 29
New
May 7
First Quarter

Hourly Weather History & Observations

Time (EEST) Temp. Dew Point Humidity Pressure Visibility Wind Dir Wind Speed Gust Speed Precip Events Conditions
12:00 AM 49 °F 43 °F 74% 30.05 in 6 mi NNW 6.9 mph - -   Partly Cloudy
12:20 AM 48.2 °F 44.6 °F 87% 30.04 in - North 8.1 mph - N/A   Clear
12:50 AM 48.2 °F 44.6 °F 87% 30.04 in - NNW 6.9 mph - N/A   Clear
1:20 AM 50.0 °F 44.6 °F 82% 30.04 in - North 9.2 mph - N/A   Clear
1:50 AM 51.8 °F 44.6 °F 76% 30.04 in - Variable 9.2 mph - N/A   Clear
2:20 AM 48.2 °F 44.6 °F 87% 30.04 in - North 9.2 mph - N/A   Clear
2:50 AM 48.2 °F 42.8 °F 82% 30.04 in - North 8.1 mph - N/A   Clear
3:00 AM 48 °F 43 °F 78% 30.05 in 6 mi North 8.1 mph - -   Partly Cloudy
3:20 AM 48.2 °F 42.8 °F 82% 30.04 in - North 6.9 mph - N/A   Clear
3:50 AM 50.0 °F 42.8 °F 76% 30.04 in - North 6.9 mph - N/A   Clear
4:20 AM 48.2 °F 44.6 °F 87% 30.04 in - NNW 8.1 mph - N/A   Clear
4:50 AM 48.2 °F 42.8 °F 82% 30.04 in - North 10.4 mph - N/A   Clear
5:20 AM 48.2 °F 44.6 °F 87% 30.04 in - North 10.4 mph - N/A   Clear
5:50 AM 50.0 °F 42.8 °F 76% 30.04 in - North 6.9 mph - N/A   Clear
6:00 AM 49 °F 43 °F 72% 30.06 in 6 mi North 6.9 mph - -   Mostly Cloudy
6:20 AM 50.0 °F 42.8 °F 76% 30.06 in - North 4.6 mph - N/A   Clear
6:50 AM 50.0 °F 41.0 °F 71% 30.06 in - NNE 8.1 mph - N/A   Clear
7:20 AM 50.0 °F 41.0 °F 71% 30.06 in - North 6.9 mph - N/A   Clear
7:50 AM 50.0 °F 39.2 °F 66% 30.06 in 6.2 mi North 5.8 mph - N/A   Mostly Cloudy
8:20 AM 50.0 °F 41.0 °F 71% 30.09 in 6.2 mi NNW 5.8 mph - N/A   Mostly Cloudy
8:50 AM 51.8 °F 37.4 °F 58% 30.09 in 6.2 mi NNW 4.6 mph - N/A   Mostly Cloudy
9:00 AM 52 °F 38 °F 48% 30.10 in 6 mi NNW 4.6 mph - -   Scattered Clouds
9:20 AM 53.6 °F 37.4 °F 54% 30.09 in 6.2 mi NNW 4.6 mph - N/A   Mostly Cloudy
9:50 AM 53.6 °F 42.8 °F 67% 30.09 in 6.2 mi South 4.6 mph - N/A   Partly Cloudy
10:20 AM 55.4 °F 42.8 °F 63% 30.09 in 6.2 mi SSW 5.8 mph - N/A   Scattered Clouds
10:50 AM 55.4 °F 41.0 °F 58% 30.09 in 6.2 mi South 6.9 mph - N/A   Scattered Clouds
11:20 AM 55.4 °F 42.8 °F 63% 30.09 in 6.2 mi South 8.1 mph - N/A   Mostly Cloudy
11:50 AM 53.6 °F 46.4 °F 77% 30.09 in 6.2 mi SSW 9.2 mph - N/A   Mostly Cloudy
12:00 PM 54 °F 44 °F 60% 30.11 in 6 mi SSW 9.2 mph - -   Partly Cloudy
12:20 PM 53.6 °F 44.6 °F 72% 30.09 in 6.2 mi SSW 9.2 mph - N/A   Mostly Cloudy
12:50 PM 55.4 °F 44.6 °F 67% 30.09 in 6.2 mi SSW 10.4 mph - N/A   Mostly Cloudy
1:20 PM 55.4 °F 44.6 °F 67% 30.09 in 6.2 mi SW 11.5 mph - N/A   Mostly Cloudy
1:50 PM 53.6 °F 42.8 °F 67% 30.09 in 6.2 mi SW 10.4 mph - N/A   Mostly Cloudy
2:20 PM 55.4 °F 44.6 °F 67% 30.06 in 6.2 mi SW 12.7 mph - N/A   Mostly Cloudy
2:50 PM 57.2 °F 46.4 °F 67% 30.06 in 6.2 mi SW 9.2 mph - N/A   Scattered Clouds
3:00 PM 57 °F 44 °F 50% 30.09 in 6 mi SW 9.2 mph - -   Partly Cloudy
3:20 PM 62.6 °F 41.0 °F 45% 30.06 in 6.2 mi NNE 10.4 mph - N/A   Scattered Clouds
3:50 PM 60.8 °F 39.2 °F 45% 30.06 in 6.2 mi North 8.1 mph - N/A   Scattered Clouds
4:20 PM 60.8 °F 41.0 °F 48% 30.06 in 6.2 mi North 11.5 mph - N/A   Scattered Clouds
4:50 PM 60.8 °F 42.8 °F 52% 30.04 in 6.2 mi North 12.7 mph - N/A   Scattered Clouds
5:20 PM 60.8 °F 41.0 °F 48% 30.04 in - North 11.5 mph - N/A   Clear
5:50 PM 59.0 °F 41.0 °F 51% 30.04 in - NE 9.2 mph - N/A   Clear
6:00 PM 60 °F 40 °F 35% 30.05 in 6 mi NE 9.2 mph - -  
6:20 PM 59.0 °F 41.0 °F 51% 30.04 in - NNE 9.2 mph - N/A   Clear
6:50 PM 59.0 °F 41.0 °F 51% 30.04 in - Variable 4.6 mph 16.1 mph N/A   Clear
7:20 PM 57.2 °F 41.0 °F 55% 30.04 in - Variable 4.6 mph - N/A   Clear
7:50 PM 53.6 °F 42.8 °F 67% 30.04 in - SSW 5.8 mph - N/A   Clear
8:20 PM 53.6 °F 46.4 °F 77% 30.04 in - Calm Calm - N/A   Clear
8:50 PM 53.6 °F 44.6 °F 72% 30.04 in - Calm Calm - N/A   Clear
9:00 PM 53 °F 44 °F 61% 30.06 in 6 mi Calm Calm - -  
9:20 PM 51.8 °F 44.6 °F 76% 30.06 in - Calm Calm - N/A   Clear
9:50 PM 51.8 °F 42.8 °F 71% 30.06 in - Calm Calm - N/A   Clear
10:20 PM 51.8 °F 42.8 °F 71% 30.04 in - Calm Calm - N/A   Clear
10:50 PM 51.8 °F 42.8 °F 71% 30.04 in - Calm Calm - N/A   Clear
11:20 PM 51.8 °F 44.6 °F 76% 30.04 in - Calm Calm - N/A   Clear
11:50 PM 51.8 °F 44.6 °F 76% 30.04 in - Calm Calm - N/A   Clear